Darstellungsparameter: Aktuell verwendete Einstellungen:
Skalierung der Graphiken ... ?
xyx+y,   Skalierungsfaktor:      Skalierung: Modus: x, Faktor: 1
Darstellungszeitraum ... ?
Vom - - bis: - -   Zeitraum: 08.08.2017 - 07.08.2018
Min/Max/Avg-Anzeige ... ?
Zeige MMA aktuell
Zeige MMA Monat
Zeige MMA alles
Zeige --A aktuell
Zeige --A Monat
Zeige --A alles
Keine MMA-Anzeige
MMA:
Keine MMA-Graphiken
MMA-Basis: 08.08.2017 - 07.08.2018
Quicknavigation für Darstellung... ?
Tage:      1T, 2T, 3T, 5T -1T -2T -3T -5T +1T +2T +3T +5T
Wochen: 1W, 2W, 3W -1W -2W -3W +1W +2W +3W
Monate: 1M, 3M, 6M -1M -3M -6M +1M +3M +6M
Jahre:    1J, 3J, 5J, 10J -1J -3J -5J -10J +1J +3J +5J +10J
Nutze für die Darstellung ... ?
Originaldaten oder ...
Mittelwerte Minima Maxima auf...
Stundenbasis Tagesbasis Wochenbasis
Monatsbasis Jahresbasis      Datenbasis: Mittelwerte auf Tagesbasis
Darstellen als:
Statistik (Auto) Statistik J:M      Darstellung:
Zur Graphik,    zurück zur Übersicht aller Sensoren.
 
Tabellarische Datenbersicht: ?
 
Sensor: Nr:Datum:Temp:Feuchte:Taupunkt:
Aussen-T/F 1 08-08-2017 00:00:00 17.34063 C 86.7500 % 15.11 C
2 09-08-2017 00:00:00 17.64167 C 77.9826 % 13.76 C
3 10-08-2017 00:00:00 15.45139 C 94.6771 % 14.6 C
4 11-08-2017 00:00:00 14.99271 C 95.3889 % 14.26 C
5 12-08-2017 00:00:00 15.39965 C 94.4688 % 14.52 C
6 13-08-2017 00:00:00 18.25694 C 84.2813 % 15.56 C
7 14-08-2017 00:00:00 18.07396 C 87.2535 % 15.92 C
8 15-08-2017 00:00:00 18.78299 C 93.5243 % 17.72 C
9 16-08-2017 00:00:00 19.80486 C 87.2847 % 17.63 C
10 17-08-2017 00:00:00 19.18438 C 87.3125 % 17.02 C
11 18-08-2017 00:00:00 18.28819 C 94.1632 % 17.33 C
12 19-08-2017 00:00:00 14.62049 C 90.6076 % 13.1 C
13 20-08-2017 00:00:00 14.85243 C 86.3993 % 12.6 C
14 21-08-2017 00:00:00 15.85833 C 82.2049 % 12.83 C
15 22-08-2017 00:00:00 15.7316 C 84.9097 % 13.2 C
16 23-08-2017 00:00:00 17.82812 C 84.2535 % 15.14 C
17 24-08-2017 00:00:00 19.30625 C 82.1632 % 16.19 C
18 25-08-2017 00:00:00 18.12049 C 89.3993 % 16.35 C
19 26-08-2017 00:00:00 20.59861 C 92.9132 % 19.41 C
20 27-08-2017 00:00:00 19.43507 C 89.5035 % 17.66 C
21 28-08-2017 00:00:00 19.49063 C 85.7882 % 17.05 C
22 29-08-2017 00:00:00 19.97986 C 86.3507 % 17.63 C
23 30-08-2017 00:00:00 20.58819 C 89.0903 % 18.73 C
24 31-08-2017 00:00:00 17.03194 C 87.1493 % 14.88 C
25 01-09-2017 00:00:00 13.72639 C 88.3785 % 11.84 C
Sensor: Nr:Datum:Temp:Feuchte:Taupunkt:
Aussen-T/F 26 02-09-2017 00:00:00 14.2625 C 89.4271 % 12.55 C
27 03-09-2017 00:00:00 13.22257 C 87.7743 % 11.24 C
28 04-09-2017 00:00:00 13.75208 C 90.0313 % 12.15 C
29 05-09-2017 00:00:00 17.85347 C 90.3160 % 16.25 C
30 06-09-2017 00:00:00 17.36389 C 78.5868 % 13.61 C
31 07-09-2017 00:00:00 15.38472 C 80.6389 % 12.08 C
32 08-09-2017 00:00:00 15.88958 C 80.7917 % 12.6 C
33 09-09-2017 00:00:00 14.59236 C 91.5764 % 13.24 C
34 10-09-2017 00:00:00 13.23924 C 88.7951 % 11.43 C
35 11-09-2017 00:00:00 14.41667 C 84.9861 % 11.93 C
36 12-09-2017 00:00:00 14.27674 C 84.4097 % 11.69 C
37 13-09-2017 00:00:00 14.43993 C 87.5729 % 12.4 C
38 14-09-2017 00:00:00 11.98194 C 92.1076 % 10.74 C
39 15-09-2017 00:00:00 12.37917 C 88.0347 % 10.46 C
40 16-09-2017 00:00:00 10.41007 C 88.3021 % 8.56 C
41 17-09-2017 00:00:00 9.97118 C 94.9861 % 9.21 C
42 18-09-2017 00:00:00 10.50764 C 90.8785 % 9.08 C
43 19-09-2017 00:00:00 11.95903 C 92.7049 % 10.82 C
44 20-09-2017 00:00:00 11.3184 C 92.6076 % 10.17 C
45 21-09-2017 00:00:00 10.7559 C 92.2222 % 9.55 C
46 22-09-2017 00:00:00 11.39757 C 92.7222 % 10.26 C
47 23-09-2017 00:00:00 13.63785 C 89.4965 % 11.94 C
48 24-09-2017 00:00:00 12.54826 C 93.5660 % 11.54 C
49 25-09-2017 00:00:00 12.85729 C 92.9514 % 11.75 C
50 26-09-2017 00:00:00 13.54097 C 92.1389 % 12.29 C
Sensor: Nr:Datum:Temp:Feuchte:Taupunkt:
Aussen-T/F 51 27-09-2017 00:00:00 13.15069 C 94.1597 % 12.23 C
52 28-09-2017 00:00:00 14.79861 C 93.9063 % 13.83 C
53 29-09-2017 00:00:00 17.64722 C 91.7083 % 16.28 C
54 30-09-2017 00:00:00 14.56597 C 95.2326 % 13.81 C
55 01-10-2017 00:00:00 11.45937 C 95.0451 % 10.69 C
56 02-10-2017 00:00:00 14.42951 C 92.9132 % 13.3 C
57 03-10-2017 00:00:00 12.49618 C 88.9201 % 10.72 C
58 04-10-2017 00:00:00 11.37812 C 88.0972 % 9.48 C
59 05-10-2017 00:00:00 12.35868 C 85.7847 % 10.05 C
60 06-10-2017 00:00:00 9.83438 C 91.6285 % 8.54 C
61 07-10-2017 00:00:00 10.24653 C 89.7535 % 8.64 C
62 08-10-2017 00:00:00 11.93993 C 93.6181 % 10.94 C
63 09-10-2017 00:00:00 11.42222 C 93.6285 % 10.43 C
64 10-10-2017 00:00:00 13.19062 C 93.1424 % 12.11 C
65 11-10-2017 00:00:00 13.59722 C 90.6111 % 12.09 C
66 12-10-2017 00:00:00 13.7684 C 84.9618 % 11.29 C
67 13-10-2017 00:00:00 14.15556 C 91.8646 % 12.85 C
68 14-10-2017 00:00:00 13.13611 C 95.3750 % 12.41 C
69 15-10-2017 00:00:00 12.53021 C 95.9410 % 11.9 C
70 16-10-2017 00:00:00 13.45347 C 95.6215 % 12.77 C
71 17-10-2017 00:00:00 13.09201 C 95.8299 % 12.44 C
72 18-10-2017 00:00:00 12.20313 C 95.8264 % 11.56 C
73 19-10-2017 00:00:00 11.5059 C 95.8472 % 10.87 C
74 20-10-2017 00:00:00 10.5122 C 88.5610 % 8.71 C
75 21-10-2017 00:00:00 11.76076 C 91.4410 % 10.41 C
Sensor: Nr:Datum:Temp:Feuchte:Taupunkt:
Aussen-T/F 76 22-10-2017 00:00:00 10.78507 C 85.4340 % 8.44 C
77 23-10-2017 00:00:00 10.79653 C 87.4826 % 8.8 C
78 24-10-2017 00:00:00 13.69826 C 91.2465 % 12.3 C
79 25-10-2017 00:00:00 15.51111 C 87.4271 % 13.43 C
80 26-10-2017 00:00:00 13.26736 C 91.1389 % 11.85 C
81 27-10-2017 00:00:00 11.49132 C 89.5660 % 9.84 C
82 28-10-2017 00:00:00 10.36076 C 83.1944 % 7.64 C
83 29-10-2017 00:00:00 10.65694 C 82.5243 % 7.81 C
84 30-10-2017 00:00:00 7.17326 C 85.5243 % 4.91 C
85 31-10-2017 00:00:00 7.26806 C 85.6944 % 5.04 C
86 01-11-2017 00:00:00 8.73021 C 85.5313 % 6.44 C
87 02-11-2017 00:00:00 8.66389 C 87.8333 % 6.76 C
88 03-11-2017 00:00:00 7.17014 C 93.6285 % 6.21 C
89 04-11-2017 00:00:00 8.34132 C 94.7292 % 7.55 C
90 05-11-2017 00:00:00 8.89965 C 92.2083 % 7.71 C
91 06-11-2017 00:00:00 5.51424 C 92.8542 % 4.45 C
92 07-11-2017 00:00:00 4.45868 C 95.0833 % 3.74 C
93 08-11-2017 00:00:00 6.63854 C 96.5035 % 6.12 C
94 09-11-2017 00:00:00 7.54028 C 95.7569 % 6.91 C
95 10-11-2017 00:00:00 7.46563 C 90.7535 % 6.06 C
96 11-11-2017 00:00:00 6.4559 C 93.8090 % 5.53 C
97 12-11-2017 00:00:00 4.6809 C 96.1632 % 4.12 C
98 13-11-2017 00:00:00 5.61111 C 92.8125 % 4.54 C
99 14-11-2017 00:00:00 4.67951 C 94.3785 % 3.86 C
100 15-11-2017 00:00:00 6.91389 C 90.0799 % 5.4 C
Sensor: Nr:Datum:Temp:Feuchte:Taupunkt:
Aussen-T/F 101 16-11-2017 00:00:00 4.84201 C 93.1424 % 3.83 C
102 17-11-2017 00:00:00 6.01007 C 95.7535 % 5.38 C
103 18-11-2017 00:00:00 3.55278 C 91.3403 % 2.28 C
104 19-11-2017 00:00:00 5.66389 C 89.5764 % 4.09 C
105 20-11-2017 00:00:00 5.24618 C 91.6250 % 4 C
106 21-11-2017 00:00:00 9.24063 C 90.6597 % 7.79 C
107 22-11-2017 00:00:00 8.26528 C 88.1146 % 6.42 C
108 23-11-2017 00:00:00 9.3059 C 88.0486 % 7.43 C
109 24-11-2017 00:00:00 10.45451 C 92.4028 % 9.28 C
110 25-11-2017 00:00:00 5.3059 C 95.5521 % 4.65 C
111 26-11-2017 00:00:00 3.77986 C 88.7986 % 2.11 C
112 27-11-2017 00:00:00 5.66632 C 87.1875 % 3.71 C
113 28-11-2017 00:00:00 4.26181 C 94.5347 % 3.46 C
114 29-11-2017 00:00:00 3.03576 C 95.4618 % 2.38 C
115 30-11-2017 00:00:00 2.44201 C 95.3958 % 1.78 C
116 01-12-2017 00:00:00 1.13021 C 95.6389 % 0.51 C
117 02-12-2017 00:00:00 0.97604 C 94.2361 % 0.16 C
118 03-12-2017 00:00:00 0.67674 C 93.3958 % -0.26 C
119 04-12-2017 00:00:00 3.2816 C 95.5799 % 2.64 C
120 05-12-2017 00:00:00 4.74826 C 93.4792 % 3.79 C
121 06-12-2017 00:00:00 5.89792 C 90.1493 % 4.41 C
122 07-12-2017 00:00:00 4.77986 C 86.2465 % 2.68 C
123 08-12-2017 00:00:00 3.52014 C 88.7153 % 1.84 C
124 09-12-2017 00:00:00 1.27569 C 83.4618 % -1.21 C
125 10-12-2017 00:00:00 2.40903 C 88.7049 % 0.74 C
Sensor: Nr:Datum:Temp:Feuchte:Taupunkt:
Aussen-T/F 126 11-12-2017 00:00:00 6.02118 C 93.7708 % 5.1 C
127 12-12-2017 00:00:00 3.72292 C 84.9792 % 1.44 C
128 13-12-2017 00:00:00 3.81597 C 89.6875 % 2.28 C
129 14-12-2017 00:00:00 4.58611 C 90.0625 % 3.1 C
130 15-12-2017 00:00:00 2.98611 C 95.5903 % 2.35 C
131 16-12-2017 00:00:00 3.04167 C 95.9618 % 2.46 C
132 17-12-2017 00:00:00 3.05208 C 92.1076 % 1.9 C
133 18-12-2017 00:00:00 1.66944 C 95.4444 % 1.02 C
134 19-12-2017 00:00:00 3.35556 C 97.1146 % 2.94 C
135 20-12-2017 00:00:00 5.65625 C 97.6389 % 5.31 C
136 21-12-2017 00:00:00 7.51667 C 97.5556 % 7.16 C
137 22-12-2017 00:00:00 8.8125 C 97.8889 % 8.5 C
138 23-12-2017 00:00:00 8.76389 C 93.7813 % 7.82 C
139 24-12-2017 00:00:00 8.92292 C 88.6319 % 7.15 C
140 25-12-2017 00:00:00 6.77708 C 85.7292 % 4.56 C
141 26-12-2017 00:00:00 4.68299 C 90.7431 % 3.3 C
142 27-12-2017 00:00:00 5.13993 C 92.8854 % 4.09 C
143 28-12-2017 00:00:00 3.24826 C 88.2396 % 1.49 C
144 29-12-2017 00:00:00 2.41944 C 88.1667 % 0.67 C
145 30-12-2017 00:00:00 7.77187 C 90.7882 % 6.36 C
146 31-12-2017 00:00:00 12.74549 C 82.5729 % 9.86 C
147 01-01-2018 00:00:00 7.71458 C 84.2153 % 5.22 C
148 02-01-2018 00:00:00 6.21076 C 88.1979 % 4.41 C
149 03-01-2018 00:00:00 8.40313 C 84.5174 % 5.95 C
150 04-01-2018 00:00:00 8.24792 C 89.7014 % 6.66 C
Sensor: Nr:Datum:Temp:Feuchte:Taupunkt:
Aussen-T/F 151 05-01-2018 00:00:00 8.32257 C 89.6424 % 6.72 C
152 06-01-2018 00:00:00 6.22188 C 96.7917 % 5.75 C
153 07-01-2018 00:00:00 5.11458 C 92.0417 % 3.93 C
154 08-01-2018 00:00:00 4.61597 C 89.1007 % 2.98 C
155 09-01-2018 00:00:00 5.0191 C 93.0521 % 3.99 C
156 10-01-2018 00:00:00 6.95243 C 92.3472 % 5.8 C
157 11-01-2018 00:00:00 6.99653 C 95.0660 % 6.26 C
158 12-01-2018 00:00:00 6.57708 C 95.7674 % 5.95 C
159 13-01-2018 00:00:00 5.39062 C 89.7813 % 3.85 C
160 14-01-2018 00:00:00 2.95174 C 85.5208 % 0.77 C
161 15-01-2018 00:00:00 3.65833 C 91.1181 % 2.35 C
162 16-01-2018 00:00:00 6.14618 C 85.7569 % 3.94 C
163 17-01-2018 00:00:00 3.45868 C 86.7569 % 1.47 C
164 18-01-2018 00:00:00 5.94167 C 81.9479 % 3.1 C
165 19-01-2018 00:00:00 3.96146 C 86.6771 % 1.95 C
166 20-01-2018 00:00:00 3.05937 C 91.0486 % 1.74 C
167 21-01-2018 00:00:00 2.72951 C 93.5451 % 1.8 C
168 22-01-2018 00:00:00 5.11563 C 93.7708 % 4.2 C
169 23-01-2018 00:00:00 7.37049 C 88.6250 % 5.62 C
170 24-01-2018 00:00:00 11.38021 C 86.3785 % 9.19 C
171 25-01-2018 00:00:00 9.87465 C 92.0243 % 8.64 C
172 26-01-2018 00:00:00 6.62222 C 95.7396 % 5.99 C
173 27-01-2018 00:00:00 4.73299 C 95.1771 % 4.03 C
174 28-01-2018 00:00:00 7.29028 C 89.6285 % 5.7 C
175 29-01-2018 00:00:00 9.82882 C 85.7674 % 7.56 C
Sensor: Nr:Datum:Temp:Feuchte:Taupunkt:
Aussen-T/F 176 30-01-2018 00:00:00 5.41111 C 90.5104 % 3.99 C
177 31-01-2018 00:00:00 7.52153 C 91.0938 % 6.16 C
178 01-02-2018 00:00:00 3.10243 C 90.1632 % 1.65 C
179 02-02-2018 00:00:00 3.41285 C 90.8958 % 2.07 C
180 03-02-2018 00:00:00 3.47118 C 87.7292 % 1.63 C
181 04-02-2018 00:00:00 1.1434 C 87.0208 % -0.77 C
182 05-02-2018 00:00:00 0.32431 C 82.9236 % -2.23 C
183 06-02-2018 00:00:00 -0.78056 C 89.0174 % -2.36 C
184 07-02-2018 00:00:00 -0.06111 C 91.5799 % -1.26 C
185 08-02-2018 00:00:00 -2.18819 C 88.7396 % -3.79 C
186 09-02-2018 00:00:00 -1.96007 C 92.3854 % -3.03 C
187 10-02-2018 00:00:00 2.22257 C 88.0660 % 0.46 C
188 11-02-2018 00:00:00 3.32535 C 86.3333 % 1.27 C
189 12-02-2018 00:00:00 2.1059 C 85.9479 % 0.01 C
190 13-02-2018 00:00:00 -0.32674 C 85.2257 % -2.5 C
191 14-02-2018 00:00:00 -1.52222 C 83.5069 % -3.95 C
192 15-02-2018 00:00:00 1.83299 C 89.2535 % 0.26 C
193 16-02-2018 00:00:00 2.01597 C 96.2500 % 1.48 C
194 17-02-2018 00:00:00 0.40521 C 93.6354 % -0.5 C
195 18-02-2018 00:00:00 -1.01701 C 92.6701 % -2.05 C
196 19-02-2018 00:00:00 1.11667 C 88.7049 % -0.53 C
197 20-02-2018 00:00:00 0.74271 C 87.0313 % -1.16 C
198 21-02-2018 00:00:00 1.21181 C 77.1493 % -2.34 C
199 22-02-2018 00:00:00 -0.03507 C 74.0938 % -4.09 C
200 23-02-2018 00:00:00 -0.725 C 62.2674 % -7.03 C
Sensor: Nr:Datum:Temp:Feuchte:Taupunkt:
Aussen-T/F 201 24-02-2018 00:00:00 -1.57049 C 63.0625 % -7.67 C
202 25-02-2018 00:00:00 -2.70729 C 52.6701 % -11.03 C
203 26-02-2018 00:00:00 -4.18854 C 66.9375 % -9.4 C
204 27-02-2018 00:00:00 -6.00417 C 70.8264 % -10.43 C
205 28-02-2018 00:00:00 -6.7066 C 65.9757 % -11.99 C
206 01-03-2018 00:00:00 -2.91424 C 54.5035 % -10.79 C
207 02-03-2018 00:00:00 -2.40208 C 62.9826 % -8.48 C
208 03-03-2018 00:00:00 -0.40937 C 89.6736 % -1.89 C
209 04-03-2018 00:00:00 4.02986 C 90.9965 % 2.7 C
210 05-03-2018 00:00:00 5.96979 C 85.9965 % 3.81 C
211 06-03-2018 00:00:00 4.90694 C 86.9583 % 2.92 C
212 07-03-2018 00:00:00 5.39792 C 90.0556 % 3.9 C
213 08-03-2018 00:00:00 6.19653 C 83.8368 % 3.67 C
214 09-03-2018 00:00:00 5.56528 C 93.9514 % 4.67 C
215 10-03-2018 00:00:00 10.03125 C 92.4792 % 8.87 C
216 11-03-2018 00:00:00 10.51493 C 91.3854 % 9.17 C
217 12-03-2018 00:00:00 9.7 C 90.2813 % 8.19 C
218 13-03-2018 00:00:00 7.76667 C 88.1215 % 5.93 C
219 14-03-2018 00:00:00 6.86458 C 83.6076 % 4.29 C
220 15-03-2018 00:00:00 6.40382 C 83.6319 % 3.84 C
221 16-03-2018 00:00:00 7.64097 C 94.7813 % 6.86 C
222 17-03-2018 00:00:00 -0.44516 C 83.0573 % -2.96 C
223 18-03-2018 00:00:00 -1.64028 C 75.3299 % -5.42 C
224 19-03-2018 00:00:00 -0.54479 C 65.7778 % -6.15 C
225 20-03-2018 00:00:00 0.29653 C 73.5035 % -3.87 C
Sensor: Nr:Datum:Temp:Feuchte:Taupunkt:
Aussen-T/F 226 21-03-2018 00:00:00 1.2059 C 76.4132 % -2.47 C
227 22-03-2018 00:00:00 3.06319 C 89.6667 % 1.54 C
228 23-03-2018 00:00:00 6.14028 C 89.0799 % 4.48 C
229 24-03-2018 00:00:00 5.20069 C 79.8715 % 2.02 C
230 25-03-2018 00:00:00 5.42862 C 76.5217 % 1.64 C
231 26-03-2018 00:00:00 7.61146 C 73.0313 % 3.1 C
232 27-03-2018 00:00:00 5.82222 C 83.6181 % 3.27 C
233 28-03-2018 00:00:00 8.50799 C 92.0278 % 7.29 C
234 29-03-2018 00:00:00 7.11424 C 75.6701 % 3.12 C
235 30-03-2018 00:00:00 6.82813 C 81.6910 % 3.92 C
236 31-03-2018 00:00:00 8.09792 C 78.7083 % 4.63 C
237 01-04-2018 00:00:00 7.66979 C 81.5451 % 4.72 C
238 02-04-2018 00:00:00 8.78611 C 74.8715 % 4.58 C
239 03-04-2018 00:00:00 13.35 C 67.7257 % 7.51 C
240 04-04-2018 00:00:00 11.17187 C 85.0486 % 8.76 C
241 05-04-2018 00:00:00 8.16042 C 84.2049 % 5.66 C
242 06-04-2018 00:00:00 6.97187 C 72.9167 % 2.46 C
243 07-04-2018 00:00:00 12.50035 C 66.5174 % 6.44 C
244 08-04-2018 00:00:00 14.90417 C 67.3368 % 8.91 C
245 09-04-2018 00:00:00 13.73333 C 72.7188 % 8.93 C
246 10-04-2018 00:00:00 13.3816 C 78.1875 % 9.66 C
247 11-04-2018 00:00:00 11.50035 C 87.5035 % 9.5 C
248 12-04-2018 00:00:00 13.06493 C 80.5000 % 9.79 C
249 13-04-2018 00:00:00 10.32188 C 88.1458 % 8.45 C
250 14-04-2018 00:00:00 13.08403 C 76.3056 % 9.01 C
Sensor: Nr:Datum:Temp:Feuchte:Taupunkt:
Aussen-T/F 251 15-04-2018 00:00:00 14.37465 C 81.8542 % 11.32 C
252 16-04-2018 00:00:00 13.42882 C 78.5417 % 9.78 C
253 17-04-2018 00:00:00 13.72569 C 74.7569 % 9.33 C
254 18-04-2018 00:00:00 15.73264 C 69.7882 % 10.23 C
255 19-04-2018 00:00:00 17.21806 C 66.2847 % 10.88 C
256 20-04-2018 00:00:00 17.08681 C 67.8229 % 11.1 C
257 21-04-2018 00:00:00 18.09931 C 71.2639 % 12.82 C
258 22-04-2018 00:00:00 18.53681 C 73.1042 % 13.63 C
259 23-04-2018 00:00:00 18.01181 C 70.6181 % 12.6 C
260 24-04-2018 00:00:00 14.03854 C 72.5938 % 9.2 C
261 25-04-2018 00:00:00 13.47917 C 75.5694 % 9.25 C
262 26-04-2018 00:00:00 11.09167 C 65.0868 % 4.79 C
263 27-04-2018 00:00:00 11.96181 C 67.8333 % 6.21 C
264 28-04-2018 00:00:00 12.62917 C 72.8854 % 7.9 C
265 29-04-2018 00:00:00 14.24792 C 85.8194 % 11.91 C
266 30-04-2018 00:00:00 13.44931 C 77.7604 % 9.65 C
267 01-05-2018 00:00:00 9.59063 C 69.6354 % 4.32 C
268 02-05-2018 00:00:00 9.44549 C 75.6910 % 5.38 C
269 03-05-2018 00:00:00 12.35347 C 68.5729 % 6.74 C
270 04-05-2018 00:00:00 13.14618 C 65.4722 % 6.83 C
271 05-05-2018 00:00:00 15.50764 C 61.2708 % 8.09 C
272 06-05-2018 00:00:00 17.0059 C 57.6563 % 8.6 C
273 07-05-2018 00:00:00 17.60312 C 61.7674 % 10.19 C
274 08-05-2018 00:00:00 18.08264 C 62.5556 % 10.83 C
275 09-05-2018 00:00:00 17.125 C 71.3160 % 11.89 C
Sensor: Nr:Datum:Temp:Feuchte:Taupunkt:
Aussen-T/F 276 10-05-2018 00:00:00 14.09271 C 87.0729 % 11.98 C
277 11-05-2018 00:00:00 14.47951 C 77.2778 % 10.55 C
278 12-05-2018 00:00:00 16.39236 C 75.1597 % 11.99 C
279 13-05-2018 00:00:00 14.62278 C 93.1317 % 13.53 C
280 14-05-2018 00:00:00 16.77361 C 89.0556 % 14.96 C
281 15-05-2018 00:00:00 15.91597 C 75.1875 % 11.53 C
282 16-05-2018 00:00:00 15.4941 C 83.2118 % 12.66 C
283 17-05-2018 00:00:00 13.78333 C 73.6285 % 9.16 C
284 18-05-2018 00:00:00 12.14792 C 74.4757 % 7.75 C
285 19-05-2018 00:00:00 13.63299 C 73.7118 % 9.03 C
286 20-05-2018 00:00:00 14.00278 C 84.2917 % 11.4 C
287 21-05-2018 00:00:00 17.43819 C 78.1806 % 13.6 C
288 22-05-2018 00:00:00 16.97917 C 82.6944 % 14.02 C
289 23-05-2018 00:00:00 17.30243 C 88.5104 % 15.39 C
290 24-05-2018 00:00:00 17.125 C 87.8507 % 15.1 C
291 25-05-2018 00:00:00 19.81944 C 80.2535 % 16.32 C
292 26-05-2018 00:00:00 20.84826 C 76.3958 % 16.54 C
293 27-05-2018 00:00:00 20.3191 C 81.4236 % 17.03 C
294 28-05-2018 00:00:00 21.47083 C 81.6424 % 18.2 C
295 29-05-2018 00:00:00 20.77292 C 85.9514 % 18.34 C
296 30-05-2018 00:00:00 21.53403 C 77.5799 % 17.45 C
297 31-05-2018 00:00:00 22.62083 C 74.5313 % 17.86 C
298 01-06-2018 00:00:00 19.10729 C 88.6667 % 17.19 C
299 02-06-2018 00:00:00 19.22917 C 81.5243 % 15.99 C
300 03-06-2018 00:00:00 19.42708 C 77.5903 % 15.41 C
Sensor: Nr:Datum:Temp:Feuchte:Taupunkt:
Aussen-T/F 301 04-06-2018 00:00:00 20.95938 C 74.2257 % 16.2 C
302 05-06-2018 00:00:00 20.70035 C 77.2569 % 16.58 C
303 06-06-2018 00:00:00 21.09375 C 74.2222 % 16.33 C
304 07-06-2018 00:00:00 21.15174 C 80.5868 % 17.68 C
305 08-06-2018 00:00:00 20.94375 C 84.2361 % 18.18 C
306 09-06-2018 00:00:00 21.9125 C 83.9896 % 19.08 C
307 10-06-2018 00:00:00 21.38239 C 86.1831 % 18.98 C
308 11-06-2018 00:00:00 19.19444 C 93.4549 % 18.11 C
309 12-06-2018 00:00:00 16.41979 C 90.3194 % 14.83 C
310 13-06-2018 00:00:00 14.8941 C 79.6285 % 11.41 C
311 14-06-2018 00:00:00 14.94132 C 80.6806 % 11.65 C
312 15-06-2018 00:00:00 17.84236 C 88.0243 % 15.83 C
313 16-06-2018 00:00:00 19.99306 C 78.6493 % 16.17 C
314 17-06-2018 00:00:00 17.94167 C 75.1979 % 13.49 C
315 18-06-2018 00:00:00 17.81667 C 77.9757 % 13.93 C
316 19-06-2018 00:00:00 18.89201 C 84.5799 % 16.24 C
317 20-06-2018 00:00:00 23.07639 C 72.0069 % 17.75 C
318 21-06-2018 00:00:00 17.92639 C 69.4514 % 12.26 C
319 22-06-2018 00:00:00 13.74097 C 68.4549 % 8.04 C
320 23-06-2018 00:00:00 13.76424 C 76.4514 % 9.7 C
321 24-06-2018 00:00:00 15.88264 C 72.8299 % 11.02 C
322 25-06-2018 00:00:00 17.09201 C 78.1806 % 13.26 C
323 26-06-2018 00:00:00 17.67396 C 74.6806 % 13.13 C
324 27-06-2018 00:00:00 19.15694 C 67.6979 % 13.05 C
325 28-06-2018 00:00:00 20.71076 C 61.1806 % 12.97 C
Sensor: Nr:Datum:Temp:Feuchte:Taupunkt:
Aussen-T/F 326 29-06-2018 00:00:00 24.11424 C 56.0451 % 14.8 C
327 30-06-2018 00:00:00 22.06215 C 56.9201 % 13.13 C
328 01-07-2018 00:00:00 20.86597 C 42.7396 % 7.74 C
329 02-07-2018 00:00:00 20.44792 C 45.9861 % 8.44 C
330 03-07-2018 00:00:00 20.73299 C 50.1319 % 9.98 C
331 04-07-2018 00:00:00 18.84167 C 80.7778 % 15.47 C
332 05-07-2018 00:00:00 19.41111 C 88.5799 % 17.48 C
333 06-07-2018 00:00:00 20.03056 C 75.7014 % 15.61 C
334 07-07-2018 00:00:00 20.66701 C 67.2326 % 14.38 C
335 08-07-2018 00:00:00 19.71181 C 58.3160 % 11.3 C
336 09-07-2018 00:00:00 19.32361 C 67.3299 % 13.12 C
337 10-07-2018 00:00:00 17.13715 C 73.0729 % 12.28 C
338 11-07-2018 00:00:00 16.10729 C 82.2396 % 13.08 C
339 12-07-2018 00:00:00 19.59688 C 80.3924 % 16.13 C
340 13-07-2018 00:00:00 19.71166 C 77.4240 % 15.65 C
341 14-07-2018 00:00:00 21.51493 C 67.9236 % 15.34 C
342 15-07-2018 00:00:00 21.63021 C 64.0521 % 14.54 C
343 16-07-2018 00:00:00 22.30868 C 61.5347 % 14.56 C
344 17-07-2018 00:00:00 21.01771 C 65.8507 % 14.39 C
345 18-07-2018 00:00:00 20.29479 C 65.8750 % 13.71 C
346 19-07-2018 00:00:00 20.92431 C 60.5069 % 13 C
347 20-07-2018 00:00:00 21.5559 C 61.6319 % 13.88 C
348 21-07-2018 00:00:00 20.6125 C 77.3958 % 16.52 C
349 22-07-2018 00:00:00 21.61458 C 70.0486 % 15.92 C
350 23-07-2018 00:00:00 22.37917 C 67.0868 % 15.97 C
Sensor: Nr:Datum:Temp:Feuchte:Taupunkt:
Aussen-T/F 351 24-07-2018 00:00:00 23.70278 C 63.7465 % 16.43 C
352 25-07-2018 00:00:00 25.50069 C 57.3160 % 16.44 C
353 26-07-2018 00:00:00 27.18785 C 54.2326 % 17.14 C
354 27-07-2018 00:00:00 26.11146 C 50.4861 % 15.03 C
355 28-07-2018 00:00:00 21.97743 C 76.3924 % 17.63 C
356 29-07-2018 00:00:00 23.50521 C 66.0451 % 16.8 C
357 30-07-2018 00:00:00 24.29931 C 64.4410 % 17.16 C
358 31-07-2018 00:00:00 25.46875 C 61.9722 % 17.65 C
359 01-08-2018 00:00:00 20.74271 C 87.4931 % 18.59 C
360 02-08-2018 00:00:00 23.73056 C 74.2257 % 18.87 C
361 03-08-2018 00:00:00 26.4684 C 61.0278 % 18.34 C
362 04-08-2018 00:00:00 26.38714 C 57.9821 % 17.45 C
363 05-08-2018 00:00:00 24.70486 C 59.6424 % 16.32 C
364 06-08-2018 00:00:00 24.16944 C 57.6563 % 15.29 C
365 07-08-2018 00:00:00 26.73646 C 55.5104 % 17.09 C

Maximal/Minimal-Werte vom 08.08.2017 - 07.08.2018

Sensor Min Max Avg
Temp
(Aussen-T/F)
-10.4 °C
27-02-2018  07:25:00
38.4 °C
07-08-2018  18:10:00
11.46 °C
Feuchte
(Aussen-T/F)
18 %
03-07-2018  17:25:00
99 %
19-10-2017  14:05:00
83.05 %
Taupunkt
(Aussen-T/F)
-11.99 C
28-02-2018  00:00:00
19.41 C
26-08-2017  00:00:00
8.47 C

Die Daten stammen von einer Davis Vantage Pro 2 Wetter-Station und werden unter Linux mit der Software wview2wettercgi und aufbereitet. Alle Angaben erfolgen ohne Gewähr für ihre Vollständigkeit oder Richtigkeit.
Kontakt: Rainer Krienke krienke@uni-koblenz.de . Meine Webseiten an der Uni Koblenz oder privat.
Version: $Revision: 0.78 $